Location: Beddau
(51.5575°N, 3.3561°W)
Time: 12:22:35
(UTC+00:00)

Gbstr 26 Del rocket - Pass Details

Date: 03 March 2021
Orbit: 492 x 1264 km, 51.8° (Epoch: 10 April)

Event Time Altitude Azimuth Distance (km) Brightness Sun altitude
Rises 19:52:18 0° 271° (W) 2,838 8.0 -18.5°
Reaches altitude 10° 19:54:23 10° 272° (W) 2,021 6.9 -18.8°
Maximum altitude 19:59:02 87° 1° (N) 738 3.3 -19.5°
Enters shadow 20:01:07 39° 89° (E) 1,160 3.9 -19.9°
